Time,TemperatureF,DewpointF,PressureIn,WindDirection,WindDirectionDegrees,WindSpeedMPH,WindSpeedGustMPH,Humidity,HourlyPrecipIn,Conditions,Clouds,dailyrainin,SolarRadiationWatts/m^2,SoftwareType,DateUTC
2013-02-09 00:00:00,33.3,14.8,30.52,NNW,331,4.0,-999.0,46,0.00,,,0.08,0,WeatherHawk,2013-02-09 05:00:00,
2013-02-09 00:01:00,33.5,14.9,30.52,NNW,340,0.0,0.0,46,0.00,,,0.00,0,WeatherHawk,2013-02-09 05:01:00,
2013-02-09 00:05:00,33.4,14.9,30.54,WNW,287,2.0,-999.0,46,0.00,,,0.00,0,WeatherHawk,2013-02-09 05:05:00,
2013-02-09 00:10:00,33.1,13.6,30.53,WSW,241,4.0,0.0,44,0.00,,,0.00,0,WeatherHawk,2013-02-09 05:10:00,
2013-02-09 00:15:00,32.9,12.3,30.54,WNW,303,4.0,-999.0,42,0.00,,,0.00,0,WeatherHawk,2013-02-09 05:15:00,
2013-02-09 00:20:00,32.7,12.2,30.55,North,351,4.0,0.0,42,0.00,,,0.00,0,WeatherHawk,2013-02-09 05:20:00,
2013-02-09 00:25:00,32.6,11.6,30.54,North,0,4.0,-999.0,41,0.00,,,0.00,1,WeatherHawk,2013-02-09 05:25:00,
2013-02-09 00:30:00,32.4,10.8,30.54,North,0,8.0,-999.0,40,0.00,,,0.00,0,WeatherHawk,2013-02-09 05:30:00,
2013-02-09 00:35:00,32.2,10.0,30.55,NW,315,4.0,0.0,39,0.00,,,0.00,0,WeatherHawk,2013-02-09 05:35:00,
2013-02-09 00:40:00,32.0,8.7,30.55,West,278,0.0,0.0,37,0.00,,,0.00,0,WeatherHawk,2013-02-09 05:40:00,
2013-02-09 00:45:00,31.7,9.1,30.56,NW,319,4.0,0.0,38,0.00,,,0.00,0,WeatherHawk,2013-02-09 05:45:00,
2013-02-09 00:50:00,31.6,8.3,30.56,NNW,342,6.0,0.0,37,0.00,,,0.00,2,WeatherHawk,2013-02-09 05:50:00,
2013-02-09 00:55:00,31.5,8.9,30.56,WNW,296,3.0,0.0,38,0.00,,,0.00,0,WeatherHawk,2013-02-09 05:55:00,
2013-02-09 01:00:00,31.4,8.7,30.56,NW,316,5.0,0.0,38,0.00,,,0.00,0,WeatherHawk,2013-02-09 06:00:00,
2013-02-09 01:05:00,31.3,8.1,30.56,NW,323,4.0,0.0,37,0.00,,,0.00,1,WeatherHawk,2013-02-09 06:05:00,
2013-02-09 01:10:00,31.6,8.9,30.56,NNW,344,2.0,0.0,38,0.00,,,0.00,0,WeatherHawk,2013-02-09 06:10:00,
2013-02-09 01:15:00,31.4,8.7,30.57,WNW,300,3.0,0.0,38,0.00,,,0.00,0,WeatherHawk,2013-02-09 06:15:00,
2013-02-09 01:20:00,31.3,8.7,30.57,NNW,337,4.0,0.0,38,0.00,,,0.00,0,WeatherHawk,2013-02-09 06:20:00,
2013-02-09 01:25:00,31.3,9.2,30.57,NW,325,4.0,0.0,39,0.00,,,0.00,0,WeatherHawk,2013-02-09 06:25:00,
2013-02-09 01:30:00,31.2,9.1,30.57,WSW,240,2.0,0.0,39,0.00,,,0.00,0,WeatherHawk,2013-02-09 06:30:00,
2013-02-09 01:35:00,31.2,8.5,30.57,NW,316,2.0,0.0,38,0.00,,,0.00,0,WeatherHawk,2013-02-09 06:35:00,
2013-02-09 01:40:00,31.1,9.0,30.59,NW,310,1.0,0.0,39,0.00,,,0.00,0,WeatherHawk,2013-02-09 06:40:00,
2013-02-09 01:45:00,30.9,9.5,30.58,NNW,331,0.0,0.0,40,0.00,,,0.00,0,WeatherHawk,2013-02-09 06:45:00,
2013-02-09 01:50:00,31.2,9.8,30.57,SW,224,0.0,0.0,40,0.00,,,0.00,0,WeatherHawk,2013-02-09 06:50:00,
2013-02-09 01:55:00,30.9,8.9,30.56,NNW,329,2.0,0.0,39,0.00,,,0.00,0,WeatherHawk,2013-02-09 06:55:00,
2013-02-09 02:00:00,30.8,8.8,30.58,NW,324,0.0,0.0,39,0.00,,,0.00,0,WeatherHawk,2013-02-09 07:00:00,
2013-02-09 02:05:00,30.9,9.4,30.58,North,1,0.0,0.0,40,0.00,,,0.00,0,WeatherHawk,2013-02-09 07:05:00,
2013-02-09 02:10:00,30.7,9.3,30.59,NW,324,0.0,0.0,40,0.00,,,0.00,1,WeatherHawk,2013-02-09 07:10:00,
2013-02-09 02:15:00,31.0,10.1,30.58,WNW,292,0.0,0.0,41,0.00,,,0.00,0,WeatherHawk,2013-02-09 07:15:00,
2013-02-09 02:20:00,30.8,9.9,30.58,North,0,0.0,0.0,41,0.00,,,0.00,0,WeatherHawk,2013-02-09 07:20:00,
2013-02-09 02:25:00,30.7,9.3,30.59,NE,47,0.0,0.0,40,0.00,,,0.00,1,WeatherHawk,2013-02-09 07:25:00,
2013-02-09 02:30:00,30.7,9.8,30.59,NNW,347,0.0,0.0,41,0.00,,,0.00,0,WeatherHawk,2013-02-09 07:30:00,
2013-02-09 02:35:00,30.7,9.9,30.59,NNE,17,0.0,0.0,41,0.00,,,0.00,1,WeatherHawk,2013-02-09 07:35:00,
2013-02-09 02:40:00,30.6,9.8,30.60,NW,325,0.0,0.0,41,0.00,,,0.00,0,WeatherHawk,2013-02-09 07:40:00,
2013-02-09 02:45:00,30.7,9.8,30.58,NW,324,0.0,0.0,41,0.00,,,0.00,0,WeatherHawk,2013-02-09 07:45:00,
2013-02-09 02:50:00,30.6,9.7,30.60,NNW,336,1.0,0.0,41,0.00,,,0.00,0,WeatherHawk,2013-02-09 07:50:00,
2013-02-09 02:55:00,30.5,8.5,30.59,WSW,250,0.0,0.0,39,0.00,,,0.00,0,WeatherHawk,2013-02-09 07:55:00,
2013-02-09 03:00:00,30.4,8.4,30.59,NNW,328,2.0,0.0,39,0.00,,,0.00,1,WeatherHawk,2013-02-09 08:00:00,
2013-02-09 03:05:00,30.3,8.4,30.60,West,272,2.0,0.0,39,0.00,,,0.00,0,WeatherHawk,2013-02-09 08:05:00,
2013-02-09 03:10:00,30.2,7.7,30.59,NW,310,5.0,0.0,38,0.00,,,0.00,0,WeatherHawk,2013-02-09 08:10:00,
2013-02-09 03:15:00,30.1,8.1,30.59,WNW,293,0.0,0.0,39,0.00,,,0.00,0,WeatherHawk,2013-02-09 08:15:00,
2013-02-09 03:20:00,30.1,8.2,30.59,NNW,327,5.0,0.0,39,0.00,,,0.00,1,WeatherHawk,2013-02-09 08:20:00,
2013-02-09 03:25:00,29.9,8.0,30.59,NNE,27,0.0,0.0,39,0.00,,,0.00,0,WeatherHawk,2013-02-09 08:25:00,
2013-02-09 03:30:00,29.9,8.0,30.59,South,185,0.0,0.0,39,0.00,,,0.00,0,WeatherHawk,2013-02-09 08:30:00,
2013-02-09 03:35:00,29.9,8.0,30.60,WSW,249,0.0,0.0,39,0.00,,,0.00,0,WeatherHawk,2013-02-09 08:35:00,
2013-02-09 03:40:00,29.8,7.9,30.60,North,350,0.0,0.0,39,0.00,,,0.00,0,WeatherHawk,2013-02-09 08:40:00,
2013-02-09 03:45:00,29.9,8.6,30.59,ESE,108,0.0,0.0,40,0.00,,,0.00,0,WeatherHawk,2013-02-09 08:45:00,
2013-02-09 03:50:00,29.8,7.9,30.60,WSW,249,0.0,0.0,39,0.00,,,0.00,1,WeatherHawk,2013-02-09 08:50:00,
2013-02-09 03:56:00,30.1,8.7,30.60,SW,226,0.0,0.0,40,0.00,,,0.00,0,WeatherHawk,2013-02-09 08:56:00,
2013-02-09 04:01:00,29.9,8.0,30.60,NNW,341,0.0,0.0,39,0.00,,,0.00,0,WeatherHawk,2013-02-09 09:01:00,
2013-02-09 04:07:00,29.9,8.6,30.60,NE,40,0.0,0.0,40,0.00,,,0.00,0,WeatherHawk,2013-02-09 09:07:00,
2013-02-09 04:12:00,29.8,9.0,30.61,NNW,345,0.0,0.0,41,0.00,,,0.00,0,WeatherHawk,2013-02-09 09:12:00,
2013-02-09 04:17:00,30.0,9.2,30.62,NNW,328,2.0,0.0,41,0.00,,,0.00,0,WeatherHawk,2013-02-09 09:17:00,
2013-02-09 04:22:00,30.0,9.7,30.61,NW,315,2.0,0.0,42,0.00,,,0.00,0,WeatherHawk,2013-02-09 09:22:00,
2013-02-09 04:27:00,30.0,9.2,30.62,NNW,332,0.0,0.0,41,0.00,,,0.00,0,WeatherHawk,2013-02-09 09:27:00,
2013-02-09 04:32:00,30.0,9.7,30.62,North,8,0.0,0.0,42,0.00,,,0.00,0,WeatherHawk,2013-02-09 09:32:00,
2013-02-09 04:37:00,30.0,9.7,30.63,WNW,296,0.0,0.0,42,0.00,,,0.00,0,WeatherHawk,2013-02-09 09:37:00,
2013-02-09 04:42:00,30.1,10.3,30.63,NNW,340,2.0,0.0,43,0.00,,,0.00,1,WeatherHawk,2013-02-09 09:42:00,
2013-02-09 04:47:00,30.2,10.4,30.62,NW,309,3.0,0.0,43,0.00,,,0.00,0,WeatherHawk,2013-02-09 09:47:00,
2013-02-09 04:52:00,30.0,10.2,30.63,WNW,298,3.0,0.0,43,0.00,,,0.00,0,WeatherHawk,2013-02-09 09:52:00,
2013-02-09 04:57:00,29.8,9.6,30.63,WNW,284,4.0,0.0,42,0.00,,,0.00,0,WeatherHawk,2013-02-09 09:57:00,
2013-02-09 05:02:00,29.8,9.5,30.63,NW,304,4.0,0.0,42,0.00,,,0.00,1,WeatherHawk,2013-02-09 10:02:00,
2013-02-09 05:07:00,29.7,9.0,30.63,West,272,3.0,0.0,41,0.00,,,0.00,0,WeatherHawk,2013-02-09 10:07:00,
2013-02-09 05:12:00,29.8,9.0,30.63,NW,326,3.0,0.0,41,0.00,,,0.00,1,WeatherHawk,2013-02-09 10:12:00,
2013-02-09 05:17:00,29.7,8.9,30.63,WNW,299,3.0,0.0,41,0.00,,,0.00,1,WeatherHawk,2013-02-09 10:17:00,
2013-02-09 05:22:00,29.6,8.8,30.64,NW,325,3.0,0.0,41,0.00,,,0.00,0,WeatherHawk,2013-02-09 10:22:00,
2013-02-09 05:27:00,29.5,9.3,30.63,NW,318,0.0,0.0,42,0.00,,,0.00,0,WeatherHawk,2013-02-09 10:27:00,
2013-02-09 05:32:00,29.5,9.3,30.63,NW,323,1.0,0.0,42,0.00,,,0.00,0,WeatherHawk,2013-02-09 10:32:00,
2013-02-09 05:37:00,29.3,8.5,30.63,NW,320,1.0,0.0,41,0.00,,,0.00,0,WeatherHawk,2013-02-09 10:37:00,
2013-02-09 05:42:00,29.2,9.0,30.64,NE,45,0.0,0.0,42,0.00,,,0.00,0,WeatherHawk,2013-02-09 10:42:00,
2013-02-09 05:47:00,28.9,8.8,30.64,North,351,0.0,0.0,42,0.00,,,0.00,0,WeatherHawk,2013-02-09 10:47:00,
2013-02-09 05:52:00,28.8,8.1,30.63,WSW,249,0.0,0.0,41,0.00,,,0.00,0,WeatherHawk,2013-02-09 10:52:00,
2013-02-09 05:57:00,28.4,8.3,30.64,SE,126,0.0,0.0,42,0.00,,,0.00,0,WeatherHawk,2013-02-09 10:57:00,
2013-02-09 06:02:00,28.0,7.9,30.64,NNW,338,0.0,0.0,42,0.00,,,0.00,0,WeatherHawk,2013-02-09 11:02:00,
2013-02-09 06:07:00,27.7,8.1,30.64,NW,323,0.0,0.0,43,0.00,,,0.00,1,WeatherHawk,2013-02-09 11:07:00,
2013-02-09 06:12:00,27.3,8.8,30.65,SSE,161,0.0,0.0,45,0.00,,,0.00,0,WeatherHawk,2013-02-09 11:12:00,
2013-02-09 06:17:00,27.0,9.0,30.65,South,179,0.0,0.0,46,0.00,,,0.00,0,WeatherHawk,2013-02-09 11:17:00,
2013-02-09 06:22:00,26.4,8.9,30.66,South,179,0.0,0.0,47,0.00,,,0.00,0,WeatherHawk,2013-02-09 11:22:00,
2013-02-09 06:27:00,25.6,9.1,30.66,South,179,0.0,0.0,49,0.00,,,0.00,0,WeatherHawk,2013-02-09 11:27:00,
2013-02-09 06:32:00,26.4,11.2,30.66,South,179,0.0,0.0,52,0.00,,,0.00,0,WeatherHawk,2013-02-09 11:32:00,
2013-02-09 06:37:00,25.1,10.0,30.67,SSE,159,0.0,0.0,52,0.00,,,0.00,0,WeatherHawk,2013-02-09 11:37:00,
2013-02-09 06:42:00,24.4,10.6,30.68,SSE,159,0.0,0.0,55,0.00,,,0.00,0,WeatherHawk,2013-02-09 11:42:00,
2013-02-09 06:47:00,25.1,12.0,30.68,SSE,159,0.0,0.0,57,0.00,,,0.00,0,WeatherHawk,2013-02-09 11:47:00,
2013-02-09 06:52:00,24.5,11.8,30.69,SSE,159,0.0,0.0,58,0.00,,,0.00,0,WeatherHawk,2013-02-09 11:52:00,
2013-02-09 06:57:00,24.4,12.9,30.69,SSE,159,0.0,0.0,61,0.00,,,0.00,0,WeatherHawk,2013-02-09 11:57:00,
2013-02-09 07:02:00,24.8,13.7,30.69,SSE,159,0.0,0.0,62,0.00,,,0.00,0,WeatherHawk,2013-02-09 12:02:00,
2013-02-09 07:07:00,23.9,13.2,30.70,SSE,159,0.0,0.0,63,0.00,,,0.00,0,WeatherHawk,2013-02-09 12:07:00,
2013-02-09 07:12:00,22.7,12.4,30.70,SSE,159,0.0,0.0,64,0.00,,,0.00,0,WeatherHawk,2013-02-09 12:12:00,
2013-02-09 07:17:00,24.1,14.7,30.71,SSE,159,0.0,0.0,67,0.00,,,0.00,1,WeatherHawk,2013-02-09 12:17:00,
2013-02-09 07:22:00,23.8,14.4,30.71,SSE,159,0.0,0.0,67,0.00,,,0.00,2,WeatherHawk,2013-02-09 12:22:00,
2013-02-09 07:27:00,23.9,14.9,30.70,SSE,159,0.0,0.0,68,0.00,,,0.00,4,WeatherHawk,2013-02-09 12:27:00,
2013-02-09 07:32:00,22.7,13.8,30.70,SSE,159,0.0,0.0,68,0.00,,,0.00,5,WeatherHawk,2013-02-09 12:32:00,
2013-02-09 07:38:00,22.3,14.0,30.71,SSE,159,0.0,0.0,70,0.00,,,0.00,9,WeatherHawk,2013-02-09 12:38:00,
2013-02-09 07:43:00,24.0,16.6,30.72,SSE,159,0.0,0.0,73,0.00,,,0.00,12,WeatherHawk,2013-02-09 12:43:00,
2013-02-09 07:48:00,23.3,15.3,30.73,WSW,247,0.0,0.0,71,0.00,,,0.00,12,WeatherHawk,2013-02-09 12:48:00,
2013-02-09 07:53:00,24.5,16.7,30.72,SW,227,0.0,0.0,72,0.00,,,0.00,15,WeatherHawk,2013-02-09 12:53:00,
2013-02-09 07:58:00,22.3,14.0,30.72,SW,227,0.0,0.0,70,0.00,,,0.00,17,WeatherHawk,2013-02-09 12:58:00,
2013-02-09 08:03:00,23.6,15.6,30.72,SW,227,0.0,0.0,71,0.00,,,0.00,19,WeatherHawk,2013-02-09 13:03:00,
2013-02-09 08:08:00,24.8,17.1,30.73,SW,227,0.0,0.0,72,0.00,,,0.00,22,WeatherHawk,2013-02-09 13:08:00,
2013-02-09 08:13:00,22.9,14.6,30.73,SW,227,0.0,0.0,70,0.00,,,0.00,22,WeatherHawk,2013-02-09 13:13:00,
2013-02-09 08:18:00,24.4,16.7,30.72,SW,227,0.0,0.0,72,0.00,,,0.00,23,WeatherHawk,2013-02-09 13:18:00,
2013-02-09 08:23:00,24.8,16.4,30.73,SW,227,0.0,0.0,70,0.00,,,0.00,23,WeatherHawk,2013-02-09 13:23:00,
2013-02-09 08:29:00,25.9,16.4,30.73,SW,227,0.0,0.0,67,0.00,,,0.00,25,WeatherHawk,2013-02-09 13:29:00,
2013-02-09 08:34:00,26.3,15.5,30.73,SW,227,0.0,0.0,63,0.00,,,0.00,27,WeatherHawk,2013-02-09 13:34:00,
2013-02-09 08:39:00,27.1,15.1,30.73,SW,230,0.0,0.0,60,0.00,,,0.00,27,WeatherHawk,2013-02-09 13:39:00,
2013-02-09 08:44:00,27.1,13.5,30.72,West,267,0.0,0.0,56,0.00,,,0.00,58,WeatherHawk,2013-02-09 13:44:00,
2013-02-09 08:49:00,28.0,13.1,30.72,North,2,0.0,0.0,53,0.00,,,0.00,152,WeatherHawk,2013-02-09 13:49:00,
2013-02-09 08:54:00,31.0,12.6,30.71,NNW,333,0.0,0.0,46,0.00,,,0.00,162,WeatherHawk,2013-02-09 13:54:00,
2013-02-09 08:59:00,30.5,9.1,30.71,WSW,249,0.0,0.0,40,0.00,,,0.00,175,WeatherHawk,2013-02-09 13:59:00,
2013-02-09 09:04:00,30.8,7.6,30.70,SSW,209,0.0,0.0,37,0.00,,,0.00,187,WeatherHawk,2013-02-09 14:04:00,
2013-02-09 09:09:00,31.9,6.7,30.69,NE,40,1.0,0.0,34,0.00,,,0.00,194,WeatherHawk,2013-02-09 14:09:00,
2013-02-09 09:14:00,34.0,6.6,30.68,SSE,149,0.0,0.0,31,0.00,,,0.00,208,WeatherHawk,2013-02-09 14:14:00,
2013-02-09 09:19:00,33.3,3.0,30.68,SSE,167,0.0,0.0,27,0.00,,,0.00,222,WeatherHawk,2013-02-09 14:19:00,
2013-02-09 09:24:00,32.7,1.6,30.68,SW,227,0.0,0.0,26,0.00,,,0.00,234,WeatherHawk,2013-02-09 14:24:00,
2013-02-09 09:29:00,32.5,-0.2,30.67,SSW,212,0.0,0.0,24,0.00,,,0.00,244,WeatherHawk,2013-02-09 14:29:00,
2013-02-09 09:34:00,30.0,-3.2,30.67,NW,325,2.0,0.0,23,0.00,,,0.00,258,WeatherHawk,2013-02-09 14:34:00,
2013-02-09 09:39:00,32.9,0.9,30.66,SSE,162,0.0,0.0,25,0.00,,,0.00,268,WeatherHawk,2013-02-09 14:39:00,
2013-02-09 09:44:00,35.0,-3.0,30.66,West,281,0.0,0.0,19,0.00,,,0.00,281,WeatherHawk,2013-02-09 14:44:00,
2013-02-09 09:49:00,35.3,-2.8,30.66,NW,314,0.0,0.0,19,0.00,,,0.00,290,WeatherHawk,2013-02-09 14:49:00,
2013-02-09 09:54:00,32.0,-7.8,30.66,NNW,331,2.0,0.0,17,0.00,,,0.00,300,WeatherHawk,2013-02-09 14:54:00,
2013-02-09 09:59:00,35.4,-1.7,30.66,NW,321,1.0,0.0,20,0.00,,,0.00,310,WeatherHawk,2013-02-09 14:59:00,
2013-02-09 10:04:00,38.2,-8.3,30.66,NE,54,0.0,0.0,13,0.00,,,0.00,322,WeatherHawk,2013-02-09 15:04:00,
2013-02-09 10:09:00,35.1,-14.0,30.65,NW,324,2.0,0.0,11,0.00,,,0.00,331,WeatherHawk,2013-02-09 15:09:00,
2013-02-09 10:14:00,34.8,-16.2,30.65,ENE,68,0.0,0.0,10,0.00,,,0.00,340,WeatherHawk,2013-02-09 15:14:00,
2013-02-09 10:19:00,33.9,-8.8,30.65,NW,323,2.0,0.0,15,0.00,,,0.00,351,WeatherHawk,2013-02-09 15:19:00,
2013-02-09 10:24:00,32.9,-12.5,30.65,West,281,4.0,0.0,13,0.00,,,0.00,364,WeatherHawk,2013-02-09 15:24:00,
2013-02-09 10:29:00,32.8,-8.4,30.65,NNW,342,3.0,0.0,16,0.00,,,0.00,372,WeatherHawk,2013-02-09 15:29:00,
2013-02-09 10:34:00,35.8,-4.7,30.65,SW,223,1.0,0.0,17,0.00,,,0.00,378,WeatherHawk,2013-02-09 15:34:00,
2013-02-09 10:39:00,34.3,-13.0,30.63,South,187,0.0,0.0,12,0.00,,,0.00,388,WeatherHawk,2013-02-09 15:39:00,
2013-02-09 10:44:00,34.8,-8.1,30.64,ENE,75,0.0,0.0,15,0.00,,,0.00,397,WeatherHawk,2013-02-09 15:44:00,
2013-02-09 10:49:00,33.9,-8.8,30.63,South,173,2.0,0.0,15,0.00,,,0.00,404,WeatherHawk,2013-02-09 15:49:00,
2013-02-09 10:54:00,40.4,-8.1,30.62,WSW,238,0.0,0.0,12,0.00,,,0.00,411,WeatherHawk,2013-02-09 15:54:00,
2013-02-09 10:59:00,39.5,-12.5,30.61,WSW,243,0.0,0.0,10,0.00,,,0.00,421,WeatherHawk,2013-02-09 15:59:00,
2013-02-09 11:04:00,38.3,-9.8,30.61,North,351,0.0,0.0,12,0.00,,,0.00,427,WeatherHawk,2013-02-09 16:04:00,
2013-02-09 11:09:00,41.7,-10.8,30.61,SSW,207,0.0,0.0,10,0.00,,,0.00,436,WeatherHawk,2013-02-09 16:09:00,
2013-02-09 11:14:00,37.1,-12.5,30.61,SSE,151,1.0,0.0,11,0.00,,,0.00,445,WeatherHawk,2013-02-09 16:14:00,
2013-02-09 11:19:00,35.0,-14.2,30.62,ESE,118,6.0,0.0,11,0.00,,,0.00,448,WeatherHawk,2013-02-09 16:19:00,
2013-02-09 11:24:00,35.3,-13.9,30.61,SSE,150,2.0,0.0,11,0.00,,,0.00,454,WeatherHawk,2013-02-09 16:24:00,
2013-02-09 11:29:00,37.2,-10.6,30.62,WNW,288,0.0,0.0,12,0.00,,,0.00,454,WeatherHawk,2013-02-09 16:29:00,
2013-02-09 11:34:00,44.0,-5.3,30.62,NW,316,0.0,0.0,12,0.00,,,0.00,463,WeatherHawk,2013-02-09 16:34:00,
2013-02-09 11:39:00,38.9,-15.1,30.60,South,184,3.0,0.0,9,0.00,,,0.00,466,WeatherHawk,2013-02-09 16:39:00,
2013-02-09 11:44:00,36.0,-8.5,30.60,SSE,165,3.0,0.0,14,0.00,,,0.00,474,WeatherHawk,2013-02-09 16:44:00,
2013-02-09 11:49:00,38.4,-15.4,30.59,SE,138,2.0,0.0,9,0.00,,,0.00,477,WeatherHawk,2013-02-09 16:49:00,
2013-02-09 11:54:00,36.5,-12.9,30.58,South,177,3.0,0.0,11,0.00,,,0.00,485,WeatherHawk,2013-02-09 16:54:00,
2013-02-09 11:59:00,34.9,-16.1,30.59,South,172,7.0,0.0,10,0.00,,,0.00,489,WeatherHawk,2013-02-09 16:59:00,
2013-02-09 12:04:00,36.6,-14.8,30.58,SSE,168,2.0,0.0,10,0.00,,,0.00,493,WeatherHawk,2013-02-09 17:04:00,
2013-02-09 12:09:00,35.7,-8.8,30.58,SSE,152,0.0,0.0,14,0.00,,,0.00,493,WeatherHawk,2013-02-09 17:09:00,
2013-02-09 12:14:00,34.3,-20.8,30.58,SSE,152,6.0,0.0,8,0.00,,,0.00,496,WeatherHawk,2013-02-09 17:14:00,
2013-02-09 12:19:00,40.9,-9.5,30.58,NNE,22,7.0,0.0,11,0.00,,,0.00,498,WeatherHawk,2013-02-09 17:19:00,
2013-02-09 12:24:00,40.4,-13.9,30.58,North,349,3.0,0.0,9,0.00,,,0.00,503,WeatherHawk,2013-02-09 17:24:00,
2013-02-09 12:29:00,39.8,-14.4,30.58,SW,229,3.0,0.0,9,0.00,,,0.00,505,WeatherHawk,2013-02-09 17:29:00,
2013-02-09 12:34:00,36.1,-9.9,30.57,South,169,5.0,0.0,13,0.00,,,0.00,507,WeatherHawk,2013-02-09 17:34:00,
2013-02-09 12:39:00,39.5,-12.5,30.57,West,259,0.0,0.0,10,0.00,,,0.00,505,WeatherHawk,2013-02-09 17:39:00,
2013-02-09 12:44:00,38.6,-15.3,30.57,West,275,3.0,0.0,9,0.00,,,0.00,508,WeatherHawk,2013-02-09 17:44:00,
2013-02-09 12:49:00,37.1,-14.3,30.56,WNW,287,5.0,0.0,10,0.00,,,0.00,509,WeatherHawk,2013-02-09 17:49:00,
2013-02-09 12:54:00,39.1,-14.9,30.56,West,272,2.0,0.0,9,0.00,,,0.00,508,WeatherHawk,2013-02-09 17:54:00,
2013-02-09 12:59:00,39.0,-19.8,30.56,WNW,302,2.0,0.0,7,0.00,,,0.00,507,WeatherHawk,2013-02-09 17:59:00,
2013-02-09 13:04:00,40.9,-13.5,30.55,SSW,195,2.0,0.0,9,0.00,,,0.00,509,WeatherHawk,2013-02-09 18:04:00,
2013-02-09 13:09:00,37.5,-12.2,30.55,SSE,168,6.0,0.0,11,0.00,,,0.00,507,WeatherHawk,2013-02-09 18:09:00,
2013-02-09 13:14:00,39.4,-7.3,30.55,SSW,196,2.0,0.0,13,0.00,,,0.00,504,WeatherHawk,2013-02-09 18:14:00,
2013-02-09 13:19:00,39.0,-12.9,30.55,South,183,4.0,0.0,10,0.00,,,0.00,500,WeatherHawk,2013-02-09 18:19:00,
2013-02-09 13:24:00,38.2,-13.5,30.55,SSW,197,5.0,0.0,10,0.00,,,0.00,500,WeatherHawk,2013-02-09 18:24:00,
2013-02-09 13:29:00,40.5,-11.8,30.55,SW,224,3.0,0.0,10,0.00,,,0.00,499,WeatherHawk,2013-02-09 18:29:00,
2013-02-09 13:34:00,38.0,-10.0,30.54,SSE,160,4.0,0.0,12,0.00,,,0.00,495,WeatherHawk,2013-02-09 18:34:00,
2013-02-09 13:39:00,39.6,-16.8,30.54,South,184,0.0,0.0,8,0.00,,,0.00,492,WeatherHawk,2013-02-09 18:39:00,
2013-02-09 13:44:00,40.2,-19.0,30.54,SSE,156,4.0,0.0,7,0.00,,,0.00,491,WeatherHawk,2013-02-09 18:44:00,
2013-02-09 13:49:00,38.7,-17.5,30.53,SSE,165,6.0,0.0,8,0.00,,,0.00,488,WeatherHawk,2013-02-09 18:49:00,
2013-02-09 13:54:00,43.1,-16.8,30.54,West,279,2.0,0.0,7,0.00,,,0.00,482,WeatherHawk,2013-02-09 18:54:00,
2013-02-09 13:59:00,39.5,-16.9,30.53,SE,137,4.0,0.0,8,0.00,,,0.00,478,WeatherHawk,2013-02-09 18:59:00,
2013-02-09 14:04:00,39.9,-19.2,30.53,South,174,4.0,0.0,7,0.00,,,0.00,470,WeatherHawk,2013-02-09 19:04:00,
2013-02-09 14:09:00,38.7,-17.5,30.54,South,170,5.0,0.0,8,0.00,,,0.00,469,WeatherHawk,2013-02-09 19:09:00,
2013-02-09 14:14:00,39.7,-19.4,30.54,South,173,4.0,0.0,7,0.00,,,0.00,463,WeatherHawk,2013-02-09 19:14:00,
2013-02-09 14:19:00,42.1,-14.9,30.54,WNW,287,1.0,0.0,8,0.00,,,0.00,458,WeatherHawk,2013-02-09 19:19:00,
2013-02-09 14:24:00,47.0,-11.2,30.53,WSW,249,0.0,0.0,8,0.00,,,0.00,450,WeatherHawk,2013-02-09 19:24:00,
2013-02-09 14:29:00,40.1,-14.2,30.54,SSE,159,1.0,0.0,9,0.00,,,0.00,444,WeatherHawk,2013-02-09 19:29:00,
2013-02-09 14:35:00,41.4,-13.2,30.52,South,184,0.0,-999.0,9,0.00,,,0.00,442,WeatherHawk,2013-02-09 19:35:00,
2013-02-09 14:40:00,45.5,-10.0,30.53,NE,39,0.0,0.0,9,0.00,,,0.00,432,WeatherHawk,2013-02-09 19:40:00,
2013-02-09 14:45:00,44.4,-10.8,30.52,WSW,248,4.0,0.0,9,0.00,,,0.00,424,WeatherHawk,2013-02-09 19:45:00,
2013-02-09 14:50:00,41.8,-12.8,30.52,NW,317,6.0,0.0,9,0.00,,,0.00,417,WeatherHawk,2013-02-09 19:50:00,
2013-02-09 14:55:00,49.0,-7.3,30.52,NE,56,0.0,0.0,9,0.00,,,0.00,408,WeatherHawk,2013-02-09 19:55:00,
2013-02-09 15:00:00,43.1,-11.8,30.52,ENE,77,3.0,0.0,9,0.00,,,0.00,400,WeatherHawk,2013-02-09 20:00:00,
2013-02-09 15:05:00,41.3,-13.2,30.53,ESE,118,2.0,-999.0,9,0.00,,,0.00,393,WeatherHawk,2013-02-09 20:05:00,
2013-02-09 15:10:00,48.4,-7.8,30.52,SE,126,0.0,0.0,9,0.00,,,0.00,388,WeatherHawk,2013-02-09 20:10:00,
2013-02-09 15:15:00,43.5,-11.5,30.53,South,171,0.0,0.0,9,0.00,,,0.00,377,WeatherHawk,2013-02-09 20:15:00,
2013-02-09 15:20:00,42.9,-14.4,30.52,West,275,3.0,0.0,8,0.00,,,0.00,372,WeatherHawk,2013-02-09 20:20:00,
2013-02-09 15:25:00,41.7,-12.9,30.52,NW,316,2.0,0.0,9,0.00,,,0.00,339,WeatherHawk,2013-02-09 20:25:00,
2013-02-09 15:30:00,45.8,-9.8,30.51,WNW,293,0.0,0.0,9,0.00,,,0.00,364,WeatherHawk,2013-02-09 20:30:00,
2013-02-09 15:35:00,44.8,-10.5,30.52,West,278,3.0,-999.0,9,0.00,,,0.00,330,WeatherHawk,2013-02-09 20:35:00,
2013-02-09 15:40:00,42.2,-12.5,30.51,West,263,2.0,0.0,9,0.00,,,0.00,313,WeatherHawk,2013-02-09 20:40:00,
2013-02-09 15:45:00,43.4,-11.6,30.51,WNW,302,0.0,-999.0,9,0.00,,,0.00,208,WeatherHawk,2013-02-09 20:45:00,
2013-02-09 15:50:00,47.5,-8.4,30.52,SSW,213,0.0,0.0,9,0.00,,,0.00,271,WeatherHawk,2013-02-09 20:50:00,
2013-02-09 15:55:00,43.1,-11.8,30.52,SSE,155,1.0,0.0,9,0.00,,,0.00,306,WeatherHawk,2013-02-09 20:55:00,
2013-02-09 16:00:00,44.4,-10.8,30.51,South,172,2.0,0.0,9,0.00,,,0.00,295,WeatherHawk,2013-02-09 21:00:00,
2013-02-09 16:05:00,43.1,-11.8,30.51,SSE,156,3.0,0.0,9,0.00,,,0.00,279,WeatherHawk,2013-02-09 21:05:00,
2013-02-09 16:10:00,42.9,-12.0,30.51,WSW,249,3.0,0.0,9,0.00,,,0.00,262,WeatherHawk,2013-02-09 21:10:00,
2013-02-09 16:15:00,44.6,-10.7,30.52,SW,214,1.0,0.0,9,0.00,,,0.00,251,WeatherHawk,2013-02-09 21:15:00,
2013-02-09 16:20:00,45.3,-10.2,30.51,SW,228,0.0,0.0,9,0.00,,,0.00,241,WeatherHawk,2013-02-09 21:20:00,
2013-02-09 16:25:00,45.2,-10.2,30.51,SSE,161,0.0,0.0,9,0.00,,,0.00,232,WeatherHawk,2013-02-09 21:25:00,
2013-02-09 16:30:00,43.8,-9.2,30.51,SSW,212,3.0,-999.0,10,0.00,,,0.00,223,WeatherHawk,2013-02-09 21:30:00,
2013-02-09 16:35:00,44.9,-8.3,30.51,West,269,0.0,-999.0,10,0.00,,,0.00,206,WeatherHawk,2013-02-09 21:35:00,
2013-02-09 16:40:00,45.7,-7.7,30.52,WSW,242,1.0,-999.0,10,0.00,,,0.00,190,WeatherHawk,2013-02-09 21:40:00,
2013-02-09 16:45:00,44.6,-13.0,30.52,ENE,69,3.0,0.0,8,0.00,,,0.00,174,WeatherHawk,2013-02-09 21:45:00,
2013-02-09 16:50:00,43.9,-13.6,30.52,SE,144,1.0,-999.0,8,0.00,,,0.00,165,WeatherHawk,2013-02-09 21:50:00,
2013-02-09 16:55:00,44.7,-10.6,30.52,ESE,116,2.0,-999.0,9,0.00,,,0.00,155,WeatherHawk,2013-02-09 21:55:00,
2013-02-09 17:00:00,45.4,-10.1,30.52,SSE,151,0.0,0.0,9,0.00,,,0.00,142,WeatherHawk,2013-02-09 22:00:00,
2013-02-09 17:05:00,43.7,-11.4,30.52,ENE,78,2.0,0.0,9,0.00,,,0.00,84,WeatherHawk,2013-02-09 22:05:00,
2013-02-09 17:10:00,43.5,-11.5,30.53,SSE,163,0.0,0.0,9,0.00,,,0.00,116,WeatherHawk,2013-02-09 22:10:00,
2013-02-09 17:15:00,45.4,-10.1,30.53,ESE,110,0.0,0.0,9,0.00,,,0.00,106,WeatherHawk,2013-02-09 22:15:00,
2013-02-09 17:20:00,43.3,-11.7,30.53,SSE,155,0.0,0.0,9,0.00,,,0.00,92,WeatherHawk,2013-02-09 22:20:00,
2013-02-09 17:25:00,42.6,-10.1,30.52,NNW,342,2.0,0.0,10,0.00,,,0.00,74,WeatherHawk,2013-02-09 22:25:00,
2013-02-09 17:30:00,43.0,-9.8,30.53,ESE,111,0.0,-999.0,10,0.00,,,0.00,64,WeatherHawk,2013-02-09 22:30:00,
2013-02-09 17:35:00,42.7,-10.0,30.53,East,98,0.0,0.0,10,0.00,,,0.00,27,WeatherHawk,2013-02-09 22:35:00,
2013-02-09 17:40:00,42.1,-12.6,30.54,NE,43,0.0,-999.0,9,0.00,,,0.00,40,WeatherHawk,2013-02-09 22:40:00,
2013-02-09 17:45:00,42.0,-15.0,30.54,NE,34,0.0,0.0,8,0.00,,,0.00,22,WeatherHawk,2013-02-09 22:45:00,
2013-02-09 17:50:00,41.3,-15.5,30.54,North,3,0.0,-999.0,8,0.00,,,0.00,12,WeatherHawk,2013-02-09 22:50:00,
2013-02-09 17:55:00,40.5,-9.8,30.54,NW,321,0.0,0.0,11,0.00,,,0.00,7,WeatherHawk,2013-02-09 22:55:00,
2013-02-09 18:00:00,39.7,-5.6,30.55,West,262,0.0,-999.0,14,0.00,,,0.00,4,WeatherHawk,2013-02-09 23:00:00,
2013-02-09 18:05:00,38.3,-13.5,30.55,West,262,0.0,0.0,10,0.00,,,0.00,2,WeatherHawk,2013-02-09 23:05:00,
2013-02-09 18:10:00,38.2,-5.3,30.56,West,262,0.0,0.0,15,0.00,,,0.00,2,WeatherHawk,2013-02-09 23:10:00,
2013-02-09 18:15:00,37.6,-2.0,30.56,West,259,0.0,-999.0,18,0.00,,,0.00,1,WeatherHawk,2013-02-09 23:15:00,
2013-02-09 18:20:00,37.7,-0.8,30.55,West,259,0.0,0.0,19,0.00,,,0.00,0,WeatherHawk,2013-02-09 23:20:00,
2013-02-09 18:25:00,37.1,1.8,30.56,West,259,0.0,0.0,22,0.00,,,0.00,1,WeatherHawk,2013-02-09 23:25:00,
2013-02-09 18:30:00,36.8,0.6,30.56,West,259,0.0,0.0,21,0.00,,,0.00,0,WeatherHawk,2013-02-09 23:30:00,
2013-02-09 18:35:00,36.4,1.2,30.56,West,259,0.0,0.0,22,0.00,,,0.00,1,WeatherHawk,2013-02-09 23:35:00,
2013-02-09 18:40:00,36.3,1.2,30.57,West,259,0.0,0.0,22,0.00,,,0.00,1,WeatherHawk,2013-02-09 23:40:00,
2013-02-09 18:45:00,35.8,1.6,30.57,West,259,0.0,0.0,23,0.00,,,0.00,0,WeatherHawk,2013-02-09 23:45:00,
2013-02-09 18:50:00,35.6,1.5,30.57,West,259,0.0,0.0,23,0.00,,,0.00,0,WeatherHawk,2013-02-09 23:50:00,
2013-02-09 18:55:00,35.5,3.2,30.57,West,259,0.0,0.0,25,0.00,,,0.00,1,WeatherHawk,2013-02-09 23:55:00,
2013-02-09 19:00:00,35.4,3.1,30.57,West,259,0.0,0.0,25,0.00,,,0.00,0,WeatherHawk,2013-02-10 00:00:00,
2013-02-09 19:05:00,35.3,4.7,30.57,West,259,0.0,0.0,27,0.00,,,0.00,2,WeatherHawk,2013-02-10 00:05:00,
2013-02-09 19:10:00,34.6,5.7,30.57,WSW,254,0.0,0.0,29,0.00,,,0.00,1,WeatherHawk,2013-02-10 00:10:00,
2013-02-09 19:15:00,34.8,4.2,30.57,SSW,203,0.0,0.0,27,0.00,,,0.00,0,WeatherHawk,2013-02-10 00:15:00,
2013-02-09 19:20:00,34.2,3.7,30.58,SSW,205,0.0,-999.0,27,0.00,,,0.00,0,WeatherHawk,2013-02-10 00:20:00,
2013-02-09 19:25:00,33.7,5.6,30.58,SSW,205,0.0,0.0,30,0.00,,,0.00,0,WeatherHawk,2013-02-10 00:25:00,
2013-02-09 19:30:00,33.5,6.2,30.58,SSW,205,0.0,-999.0,31,0.00,,,0.00,0,WeatherHawk,2013-02-10 00:30:00,
2013-02-09 19:35:00,33.1,7.2,30.58,SSW,205,0.0,0.0,33,0.00,,,0.00,0,WeatherHawk,2013-02-10 00:35:00,
2013-02-09 19:40:00,32.9,7.7,30.58,SSW,205,0.0,0.0,34,0.00,,,0.00,0,WeatherHawk,2013-02-10 00:40:00,
2013-02-09 19:45:00,32.9,8.3,30.58,SSW,205,0.0,0.0,35,0.00,,,0.00,0,WeatherHawk,2013-02-10 00:45:00,
2013-02-09 19:50:00,33.4,9.4,30.59,SSW,205,0.0,0.0,36,0.00,,,0.00,1,WeatherHawk,2013-02-10 00:50:00,
2013-02-09 19:55:00,32.1,7.6,30.59,SSW,205,0.0,0.0,35,0.00,,,0.00,0,WeatherHawk,2013-02-10 00:55:00,
2013-02-09 20:00:00,31.4,7.6,30.59,SSW,205,0.0,-999.0,36,0.00,,,0.00,1,WeatherHawk,2013-02-10 01:00:00,
2013-02-09 20:05:00,32.6,9.2,30.59,SSW,205,0.0,0.0,37,0.00,,,0.00,0,WeatherHawk,2013-02-10 01:05:00,
2013-02-09 20:10:00,32.0,8.7,30.60,SSW,206,0.0,0.0,37,0.00,,,0.00,0,WeatherHawk,2013-02-10 01:10:00,
2013-02-09 20:15:00,31.1,8.5,30.59,SSW,205,0.0,0.0,38,0.00,,,0.00,1,WeatherHawk,2013-02-10 01:15:00,
2013-02-09 20:20:00,31.0,9.5,30.60,SSW,205,0.0,0.0,40,0.00,,,0.00,0,WeatherHawk,2013-02-10 01:20:00,
2013-02-09 20:25:00,30.8,9.3,30.59,SSW,202,0.0,0.0,40,0.00,,,0.00,0,WeatherHawk,2013-02-10 01:25:00,
2013-02-09 20:30:00,30.0,8.7,30.60,SSW,202,0.0,0.0,40,0.00,,,0.00,1,WeatherHawk,2013-02-10 01:30:00,
2013-02-09 20:35:00,30.8,9.9,30.60,SSW,202,0.0,0.0,41,0.00,,,0.00,2,WeatherHawk,2013-02-10 01:35:00,
2013-02-09 20:40:00,30.4,9.5,30.60,SSW,202,0.0,-999.0,41,0.00,,,0.00,1,WeatherHawk,2013-02-10 01:40:00,
2013-02-09 20:45:00,30.5,10.7,30.60,SSW,202,0.0,0.0,43,0.00,,,0.00,1,WeatherHawk,2013-02-10 01:45:00,
2013-02-09 20:50:00,29.9,10.7,30.60,SSW,202,0.0,-999.0,44,0.00,,,0.00,0,WeatherHawk,2013-02-10 01:50:00,
2013-02-09 20:55:00,29.9,12.2,30.59,SSW,209,0.0,-999.0,47,0.00,,,0.00,0,WeatherHawk,2013-02-10 01:55:00,
2013-02-09 21:00:00,30.0,12.3,30.59,SSW,209,0.0,-999.0,47,0.00,,,0.00,0,WeatherHawk,2013-02-10 02:00:00,
2013-02-09 21:05:00,29.7,12.5,30.59,SSW,209,0.0,0.0,48,0.00,,,0.00,0,WeatherHawk,2013-02-10 02:05:00,
2013-02-09 21:10:00,29.9,12.1,30.58,SSW,212,0.0,0.0,47,0.00,,,0.00,1,WeatherHawk,2013-02-10 02:10:00,
2013-02-09 21:15:00,30.3,12.0,30.58,WSW,247,0.0,0.0,46,0.00,,,0.00,1,WeatherHawk,2013-02-10 02:15:00,
2013-02-09 21:20:00,30.1,11.3,30.58,South,174,0.0,-999.0,45,0.00,,,0.00,0,WeatherHawk,2013-02-10 02:20:00,
2013-02-09 21:25:00,29.7,11.0,30.58,South,174,0.0,0.0,45,0.00,,,0.00,1,WeatherHawk,2013-02-10 02:25:00,
2013-02-09 21:30:00,29.6,11.8,30.58,South,174,0.0,-999.0,47,0.00,,,0.00,0,WeatherHawk,2013-02-10 02:30:00,
2013-02-09 21:35:00,29.7,12.9,30.58,South,174,0.0,-999.0,49,0.00,,,0.00,0,WeatherHawk,2013-02-10 02:35:00,
2013-02-09 21:40:00,28.9,12.2,30.59,South,174,0.0,0.0,49,0.00,,,0.00,0,WeatherHawk,2013-02-10 02:40:00,
2013-02-09 21:45:00,29.0,13.1,30.58,South,181,0.0,0.0,51,0.00,,,0.00,0,WeatherHawk,2013-02-10 02:45:00,
2013-02-09 21:50:00,29.4,12.6,30.59,NW,317,0.0,-999.0,49,0.00,,,0.00,0,WeatherHawk,2013-02-10 02:50:00,
2013-02-09 21:55:00,28.6,11.4,30.59,NW,317,0.0,0.0,48,0.00,,,0.00,0,WeatherHawk,2013-02-10 02:55:00,
2013-02-09 22:00:00,30.3,13.9,30.59,SSW,205,0.0,0.0,50,0.00,,,0.00,0,WeatherHawk,2013-02-10 03:00:00,
2013-02-09 22:05:00,28.5,11.8,30.58,SE,138,0.0,0.0,49,0.00,,,0.00,0,WeatherHawk,2013-02-10 03:05:00,
2013-02-09 22:10:00,29.6,13.3,30.58,SE,138,0.0,0.0,50,0.00,,,0.00,0,WeatherHawk,2013-02-10 03:10:00,
2013-02-09 22:15:00,28.9,12.6,30.59,SSE,167,0.0,0.0,50,0.00,,,0.00,0,WeatherHawk,2013-02-10 03:15:00,
2013-02-09 22:20:00,28.3,12.5,30.58,SSE,167,0.0,0.0,51,0.00,,,0.00,0,WeatherHawk,2013-02-10 03:20:00,
2013-02-09 22:25:00,28.4,12.6,30.57,SSE,167,0.0,0.0,51,0.00,,,0.00,1,WeatherHawk,2013-02-10 03:25:00,
2013-02-09 22:30:00,28.7,13.3,30.57,SSE,167,0.0,0.0,52,0.00,,,0.00,2,WeatherHawk,2013-02-10 03:30:00,
2013-02-09 22:35:00,28.6,13.2,30.57,SSE,167,0.0,0.0,52,0.00,,,0.00,1,WeatherHawk,2013-02-10 03:35:00,
2013-02-09 22:40:00,30.4,15.3,30.57,SSE,156,0.0,0.0,53,0.00,,,0.00,0,WeatherHawk,2013-02-10 03:40:00,
2013-02-09 22:45:00,29.1,13.7,30.56,SSE,156,0.0,0.0,52,0.00,,,0.00,1,WeatherHawk,2013-02-10 03:45:00,
2013-02-09 22:50:00,30.4,15.8,30.57,SSE,156,0.0,0.0,54,0.00,,,0.00,0,WeatherHawk,2013-02-10 03:50:00,
2013-02-09 22:55:00,30.4,14.5,30.56,SSE,156,0.0,0.0,51,0.00,,,0.00,0,WeatherHawk,2013-02-10 03:55:00,
2013-02-09 23:00:00,28.9,13.1,30.55,SSE,156,0.0,0.0,51,0.00,,,0.00,0,WeatherHawk,2013-02-10 04:00:00,
2013-02-09 23:05:00,29.6,14.6,30.56,SSE,156,0.0,0.0,53,0.00,,,0.00,1,WeatherHawk,2013-02-10 04:05:00,
2013-02-09 23:10:00,29.9,14.4,30.56,SSE,156,0.0,0.0,52,0.00,,,0.00,0,WeatherHawk,2013-02-10 04:10:00,
2013-02-09 23:15:00,30.2,15.1,30.56,SSE,156,0.0,0.0,53,0.00,,,0.00,1,WeatherHawk,2013-02-10 04:15:00,
2013-02-09 23:20:00,29.1,14.1,30.55,SSE,156,0.0,0.0,53,0.00,,,0.00,1,WeatherHawk,2013-02-10 04:20:00,
2013-02-09 23:25:00,28.8,15.5,30.56,SSE,156,0.0,0.0,57,0.00,,,0.00,0,WeatherHawk,2013-02-10 04:25:00,
2013-02-09 23:30:00,28.9,17.2,30.55,SSE,156,0.0,0.0,61,0.00,,,0.00,1,WeatherHawk,2013-02-10 04:30:00,
2013-02-09 23:36:00,29.1,17.7,30.55,NNE,12,0.0,0.0,62,0.00,,,0.00,0,WeatherHawk,2013-02-10 04:36:00,
2013-02-09 23:42:00,28.6,16.5,30.54,North,4,0.0,0.0,60,0.00,,,0.00,1,WeatherHawk,2013-02-10 04:42:00,
2013-02-09 23:47:00,29.4,18.4,30.56,North,4,0.0,0.0,63,0.00,,,0.00,2,WeatherHawk,2013-02-10 04:47:00,
2013-02-09 23:53:00,28.6,18.0,30.54,North,4,0.0,0.0,64,0.00,,,0.00,0,WeatherHawk,2013-02-10 04:53:00,
2013-02-09 23:58:00,27.0,16.1,30.54,North,0,0.0,0.0,63,0.00,,,0.00,1,WeatherHawk,2013-02-10 04:58:00,